STARLINK-2465, 48124

Orbit data source: Space-Track

STARLINK-2465, 48124 is a payload satellite owned by SpaceX/Seattle (US) in LEO that was launched on Wed, 07 Apr 2021 UTC via an FALCON 9 launch vehicle from the Air Force Eastern Test Range (AFETR). Payload-class satellites include a variety of spacecraft equipped with specific instruments for various scientific and technological missions. These include communications satellites like Starlink; space stations such as the ISS; scientific satellites like the Hubble; Earth observation satellites from companies like Planet Labs, Umbra, and HawkEye 360; GPS; miniature CubeSats for education and research; and military/defense satellites.

Loading next visibility...
Identifier
48124, 2021-027AJ
Orbit
LEO
Country
Flag of USUS
Related business
Manufacturer
SpaceX/Seattle
Mission
Operational Commercial Communications
Bus & Motor
STARLINK, Unknown motor
Mass
260 kg wet, ~248 kg dry
Launch date (UTC)
2021-04-07 (5 years ago)
Launch vehicle
FALCON 9
Launch site
Air Force Eastern Test Range (AFETR)
Object type
Payload
Rocket body
Debris
Shape & HBR
Box + 1 Pan, 10.1 m
Radar Cross Section
13.562 m², Large (>1 m²)

Expand to show TLE details & history
Last TLE update: 2 days ago

TLE from 2 days ago
0 STARLINK-2465
1 48124U 21027AJ  26171.04886723 -.00000230  00000-0  43409-5 0  9997
2 48124  53.1616  38.7697 0001089  73.0610 287.0511 15.31711485288332
Epoch: 2026-06-20T01:10Z
TLE epoch observation values (Epoch: 2026-06-20T01:10:22.128Z)
Latitude
-0.00001°
Longitude
112.90841°
Altitude
471.388 km
Speed
7.632 km/s
True Right ascension
02h 35m 04s
True Declination
0° 00' 00"
Sunlit
Object was in daylight at epoch
Visualization orbit readout
Latitude
Unknown
Longitude
Unknown
Altitude
Unknown
Speed
Unknown
Apparent Right ascension
Unknown
Apparent Declination
Unknown
Sunlit
N/A
Visualization observer readout
Local Sidereal Time
21:25:05
Azimuth
Unknown
Elevation
Unknown
Doppler factor
Unknown
Orbital elements
Apogee altitude
471.708 km
Perigee altitude
470.216 km
Semi-major axis
6,849.099 km
Eccentricity
0.00011
Inclination
53.1616°
RAAN
38.7697°
Arg. of periapsis
73.061°
True anomaly
287.03917°
Mean anomaly
287.0511°
Eccentric anomaly
287.04513°
Mean motion
3.82907 °/min
Orbital period
94.02 mins
BSTAR
0.0000043409
Loading maneuver chart data...
Computing Atmospheric mass density...

Documentation

Showing up to 5 results
|